Home > Weather > Amsterdam Island > Past weeks

Flag for French Southern Territories Weather for the Past 2 Weeks in Amsterdam Island, French Southern Territories

Now
57 °F

Cool.


Feels Like: 55 °F
Forecast: 60 / 63 °F
Wind: 12 mph from South

Location: Martin De Vivies Ile Amsterdam

Current Time: Feb 11, 2016 at 3:08:16 AM

Latest Report: Feb 11, 2016 at 1:00 AM


Visibility: N/A

Pressure: 30.23 "Hg

Humidity: 81%

Dew point: 51 °F

Location of Amsterdam IslandLocation

Historic Weather in Amsterdam Island — Graph

°F

Amsterdam Island Temperature Yesterday

Maximum temperature yesterday: 69 °F (at 1:00 PM)
Minimum temperature yesterday: 54 °F (at 4:00 AM)
Average temperature yesterday: 62 °F

High & Low Weather Summary for the Past Weeks

 TemperatureHumidityPressure
High74 °F (Jan 27, 11:00 AM)95% (Jan 27, 8:00 PM)30.43 "Hg (Jan 27, 8:00 PM)
Low53 °F (Feb 3, 12:00 AM)42% (Feb 7, 1:00 PM)29.67 "Hg (Feb 2, 1:00 PM)
Average62 °F72%30.12 "Hg
* Reported Jan 27 1:00 AM — Feb 11 1:00 AM, Amsterdam Island, Weather by CustomWeather, © 2016

Note: Actual official high and low records may vary slightly from our data, if they occured in-between our weather recording intervals... More about our weather records

Advertising

Amsterdam Island Weather History for the Previous 24 Hours

 ConditionsComfort  
Time TempWeatherWind HumidityBarometerVisibility
1:00 AM
Thu, Feb 11
57 °FCool.12 mph81%30.23 "HgN/A
12:00 AM58 °FCool.12 mph86%30.22 "HgN/A
11:00 PM
Wed, Feb 10
60 °FCool.13 mph90%30.22 "HgN/A
10:00 PM60 °FCool.10 mph90%30.22 "HgN/A
9:00 PM60 °FCool.8 mph89%30.21 "HgN/A
8:00 PM62 °FCool.9 mph83%30.19 "HgN/A
7:00 PM62 °FCool.8 mph83%30.19 "HgN/A
6:00 PM62 °FCool.10 mph84%30.17 "HgN/A
5:00 PM65 °FMild.14 mph74%30.16 "HgN/A
4:00 PM64 °FMild.12 mph70%30.17 "HgN/A
3:00 PM66 °FMild.13 mph59%30.16 "HgN/A
2:00 PM67 °FMild.13 mph58%30.17 "HgN/A
1:00 PM69 °FMild.14 mph58%30.17 "HgN/A
12:00 PM66 °FMild.13 mph63%30.17 "HgN/A
11:00 AM66 °FMild.10 mph62%30.19 "HgN/A
9:00 AM63 °FMild.10 mph66%30.19 "HgN/A
8:00 AM62 °FCool.9 mph65%30.20 "HgN/A
7:00 AM63 °FMild.6 mph63%30.19 "HgN/A
5:00 AM55 °FCool.8 mph83%30.19 "HgN/A
4:00 AM54 °FCool.8 mph83%30.18 "HgN/A
Weather by CustomWeather, © 2016

See weather overviewHow to use our weather pages